Location: Hannover
(52.3723°N, 9.7339°E)
Time: 14:55:41
(UTC+02:00)

ISS - Pass Details

Date: 05 January 2018
Orbit: 402 x 408 km, 51.6° (Epoch: 20 July)

Event Time Altitude Azimuth Distance (km) Brightness Sun altitude
Exits shadow 06:14:44 73° 223° (SW) 442 -3.9 -19.5°
Drops below altitude 10° 06:18:20 10° 89° (E) 1,504 0.2 -18.9°
Enters shadow 07:11:58 -73° 278° (W) 12,638 3.7 -11.1°
Maximum altitude 07:51:34 61° 195° (SSW) 482 -3.4 -5.7°
